Regional Weather Roundup
Issued by NWS Midland/Odessa, TX

Home | Current Version | Previous Version | Text Only | Print | Product List | Glossary On
Versions: 1 2 3 4 5 6 7 8 9 10 11 12 13 14 15 16 17 18 19 20 21 22 23 24 25 26 27 28 29 30 31 32 33 34 35 36 37 38 39 40 41 42 43 44 45 46 47 48 49 50
000
ASUS44 KMAF 282210
RWRMAF
MIDLAND AREA WEATHER ROUNDUP
NATIONAL WEATHER SERVICE MIDLAND TX
500 PM CDT WED JUN 28 2017

...IN SOUTHWEST TEXAS AND SOUTHEAST NEW MEXICO...

CITY           SKY/WX    TMP DP  RH WIND       PRES   REMARKS
ALPINE         PTSUNNY   81  60  49 E7        30.03F
ANDREWS        FAIR      95  59  30 SE12      29.86F
ARTESIA        SUNNY    100  43  14 SE14      29.80F
BIG SPRING     SUNNY     95  54  24 S13       29.86F
CARLSBAD       SUNNY    103  36  10 W12       29.79F
DRYDEN           N/A     95  63  34 SE14G24   29.83F
FORT STOCKTON  SUNNY    100  58  24 SE14G23   29.82F
GUAD PASS      SUNNY     97  33  10 SW21G40   30.03F
HOBBS          MOSUNNY   99  45  15 S8        29.86F
MARFA          CLOUDY    97  45  16 NW16G29   29.99F
MIDLAND AIRPK  SUNNY     96  54  24 SE12      29.85F
MIDLAND INTL   SUNNY     96  56  26 SE13      29.85F
ODESSA         SUNNY     95  57  27 S14G23    29.86F
PECOS          SUNNY    106  51  16 E13       29.76F HX 103
PRESIDIO       FAIR     102  52  18 W5        29.84F HX 100
SEMINOLE       SUNNY     97  56  25 S10G16    29.86F
SNYDER         SUNNY     94  60  32 SE17      29.84F
WINK           SUNNY    102  54  20 E14       29.79F HX 100
$$
...OTHER STATIONS IN TEXAS...

CITY           SKY/WX    TMP DP  RH WIND       PRES   REMARKS
ABILENE        SUNNY     91  66  43 SE21G29   29.85F
AMARILLO       SUNNY     96  48  19 S13G21    29.82F
AUSTIN         MOSUNNY   90  69  50 E7        29.85F
BROWNSVILLE    CLOUDY    79  77  94 E6        29.82F
CORPUS CHRISTI PTSUNNY   91  75  59 E15       29.83S THUNDER HX 101
DALLAS FTW     MOSUNNY   89  69  51 SE15G24   29.86F
DEL RIO        SUNNY     93  66  40 SE13      29.81F
EL PASO        MOSUNNY  101  23   6 W17G30    29.90F
HOUSTON INT    MOSUNNY   89  72  56 E15       29.86F
LUBBOCK        MOSUNNY   96  58  27 S21G26    29.84F
SAN ANGELO     SUNNY     95  61  32 S16G24    29.84F
SAN ANTONIO    MOSUNNY   90  68  48 E7        29.88S
WACO           MOSUNNY   90  68  48 S13       29.88F
WICHITA FALLS  NOT AVBL
$$
...OTHER LOCATIONS IN NEW MEXICO...

CITY           SKY/WX    TMP DP  RH WIND       PRES   REMARKS
ALAMOGORDO     SUNNY     97  18   5 NW5G16    29.92F
ALBUQUERQUE    SUNNY     93   8   4 W9G28     29.96F
CANNON AFB     SUNNY     98  37  12 SW15G22   29.87F
CLOVIS         SUNNY    100  34  10 W15G21    29.86F
HOLLOMAN AFB   SUNNY     99  18   5 W10       29.92F
ROSWELL        MOSUNNY  103  45  14 N10       29.81F
RUIDOSO        SUNNY     84  23  10 NW14      30.14F
SANTA FE       SUNNY     92  11   5 W22G32    30.01F
TRUTH OR CONSE SUNNY     97  16   5 MISG      29.94F
TUCUMCARI      SUNNY    103  20   5 W13G28    29.77F
$$




USA.gov is the U.S. government's official web portal to all federal, state and local government web resources and services.